When you browse on this site, cookies collect data to enhance your experience and personalize the content and advertising you see.
Visit our Privacy Policy to learn more. By continuing to use the site, you agree to this use of cookies and data.
  • In Romania
  • List of Countries
  • For 7 days
  • Water Temperature
  • Weather Map
  • Weather Widgets
  • user-avatar
    Login

    Hourly Weather L'Aquila

    Today, 14 November, Thursday

    Time Temperature Precipitation Wind Pressure Humidity
    00:00 +8°C° 0 mm 1 mps 697 mmHg 87%
    01:00 +8°C° 0 mm 1 mps 697 mmHg 88%
    02:00 +8°C° 0 mm 1 mps 696 mmHg 87%
    03:00 +8°C° 0 mm 1 mps 696 mmHg 87%
    04:00 +8°C° 0 mm 1 mps 696 mmHg 86%
    05:00 +8°C° 0 mm 1 mps 696 mmHg 86%
    06:00 +8°C° 0 mm 1 mps 697 mmHg 85%
    07:00 +9°C° 0 mm 1 mps 697 mmHg 85%
    08:00 +9°C° 0 mm 1 mps 697 mmHg 84%
    09:00 +10°C° 0 mm 1 mps 697 mmHg 83%
    10:00 +11°C° 0 mm 1 mps 698 mmHg 82%
    11:00 +11°C° 0.4 mm 1 mps 698 mmHg 83%
    12:00 +11°C° 0.4 mm 1 mps 697 mmHg 85%
    13:00 +11°C° 0.4 mm 1 mps 697 mmHg 87%
    14:00 +11°C° 0.3 mm 1 mps 697 mmHg 88%
    15:00 +11°C° 0.3 mm 1 mps 697 mmHg 89%
    16:00 +11°C° 0.3 mm 1 mps 697 mmHg 90%
    17:00 +10°C° 0 mm 1 mps 697 mmHg 91%
    18:00 +10°C° 0 mm 1 mps 697 mmHg 91%
    19:00 +9°C° 0 mm 1 mps 697 mmHg 92%
    20:00 +8°C° 0 mm 2 mps 697 mmHg 91%
    21:00 +7°C° 0 mm 2 mps 697 mmHg 91%
    22:00 +7°C° 0 mm 2 mps 697 mmHg 91%
    23:00 +7°C° 0 mm 2 mps 697 mmHg 90%

    Tomorrow, 15 November, Friday

    Time Temperature Precipitation Wind Pressure Humidity
    00:00 +7°C° 0 mm 2 mps 697 mmHg 89%
    01:00 +8°C° 0 mm 2 mps 697 mmHg 87%
    02:00 +8°C° 0 mm 2 mps 696 mmHg 88%
    03:00 +8°C° 0 mm 2 mps 696 mmHg 88%
    04:00 +8°C° 0 mm 2 mps 696 mmHg 88%
    05:00 +8°C° 0 mm 2 mps 696 mmHg 89%
    06:00 +8°C° 0 mm 2 mps 696 mmHg 91%
    07:00 +8°C° 0 mm 2 mps 696 mmHg 92%
    08:00 +9°C° 0 mm 3 mps 696 mmHg 87%
    09:00 +11°C° 0 mm 3 mps 696 mmHg 81%
    10:00 +12°C° 0 mm 3 mps 697 mmHg 76%
    11:00 +12°C° 0 mm 4 mps 697 mmHg 75%
    12:00 +13°C° 0 mm 4 mps 697 mmHg 74%
    13:00 +13°C° 0 mm 5 mps 697 mmHg 72%
    14:00 +13°C° 0.2 mm 4 mps 696 mmHg 77%
    15:00 +12°C° 0.2 mm 4 mps 696 mmHg 81%
    16:00 +12°C° 0.2 mm 3 mps 696 mmHg 86%
    17:00 +11°C° 4.3 mm 3 mps 696 mmHg 89%
    18:00 +11°C° 4.3 mm 3 mps 696 mmHg 92%
    19:00 +12°C° 4.3 mm 2 mps 697 mmHg 95%
    20:00 +12°C° 5.7 mm 2 mps 697 mmHg 96%
    21:00 +11°C° 5.7 mm 3 mps 698 mmHg 96%
    22:00 +11°C° 5.7 mm 3 mps 699 mmHg 96%
    23:00 +10°C° 2.1 mm 3 mps 699 mmHg 96%

    Day after tomorrow, 16 November, Saturday

    Time Temperature Precipitation Wind Pressure Humidity
    00:00 +10°C° 2.1 mm 2 mps 699 mmHg 95%
    01:00 +9°C° 2.1 mm 2 mps 699 mmHg 95%
    02:00 +9°C° 1.3 mm 2 mps 700 mmHg 94%
    03:00 +8°C° 1.3 mm 2 mps 700 mmHg 94%
    04:00 +8°C° 1.3 mm 2 mps 700 mmHg 93%
    05:00 +8°C° 0.4 mm 2 mps 700 mmHg 93%
    06:00 +7°C° 0.4 mm 2 mps 700 mmHg 92%
    07:00 +8°C° 0.4 mm 1 mps 700 mmHg 92%
    08:00 +9°C° 0.3 mm 1 mps 701 mmHg 91%
    09:00 +10°C° 0.3 mm 1 mps 701 mmHg 89%
    10:00 +10°C° 0.3 mm 1 mps 701 mmHg 88%
    11:00 +11°C° 1 mm 1 mps 701 mmHg 90%
    12:00 +11°C° 1 mm 1 mps 701 mmHg 92%
    13:00 +10°C° 1 mm 2 mps 700 mmHg 93%
    14:00 +10°C° 0.1 mm 2 mps 700 mmHg 93%
    15:00 +12°C° 0.1 mm 2 mps 699 mmHg 92%
    16:00 +12°C° 0.1 mm 2 mps 699 mmHg 92%
    17:00 +10°C° 0 mm 2 mps 698 mmHg 93%
    18:00 +10°C° 0 mm 2 mps 698 mmHg 94%
    19:00 +9°C° 0 mm 2 mps 697 mmHg 96%
    20:00 +9°C° 0 mm 2 mps 697 mmHg 95%
    21:00 +9°C° 0 mm 2 mps 697 mmHg 95%
    22:00 +9°C° 0 mm 2 mps 696 mmHg 95%
    23:00 +9°C° 0 mm 2 mps 696 mmHg 94%

    17 November, Sunday

    Time Temperature Precipitation Wind Pressure Humidity
    00:00 +8°C° 0 mm 2 mps 695 mmHg 93%
    01:00 +8°C° 0 mm 2 mps 695 mmHg 92%
    02:00 +9°C° 0.2 mm 3 mps 694 mmHg 92%
    03:00 +10°C° 0.2 mm 3 mps 694 mmHg 91%
    04:00 +10°C° 0.2 mm 4 mps 693 mmHg 91%
    05:00 +10°C° 3.4 mm 4 mps 693 mmHg 93%
    06:00 +11°C° 3.4 mm 3 mps 692 mmHg 95%
    07:00 +11°C° 3.4 mm 3 mps 692 mmHg 96%
    08:00 +11°C° 1.2 mm 4 mps 693 mmHg 91%
    09:00 +9°C° 1.2 mm 5 mps 693 mmHg 86%
    10:00 +9°C° 1.2 mm 6 mps 693 mmHg 81%
    11:00 +9°C° 0.4 mm 6 mps 694 mmHg 83%
    12:00 +9°C° 0.4 mm 6 mps 694 mmHg 86%
    13:00 +9°C° 0.4 mm 6 mps 695 mmHg 88%
    14:00 +8°C° 0.1 mm 5 mps 695 mmHg 87%
    15:00 +8°C° 0.1 mm 5 mps 696 mmHg 86%
    16:00 +7°C° 0.1 mm 4 mps 696 mmHg 85%
    17:00 +7°C° 0.1 mm 4 mps 697 mmHg 87%
    18:00 +7°C° 0.1 mm 3 mps 697 mmHg 89%
    19:00 +6°C° 0.1 mm 2 mps 697 mmHg 91%
    20:00 +6°C° 0 mm 2 mps 697 mmHg 91%
    21:00 +5°C° 0 mm 2 mps 698 mmHg 91%
    22:00 +5°C° 0 mm 2 mps 698 mmHg 91%
    23:00 +5°C° 0 mm 2 mps 698 mmHg 91%

    18 November, Monday

    Time Temperature Precipitation Wind Pressure Humidity
    00:00 +5°C° 0 mm 2 mps 697 mmHg 90%
    01:00 +6°C° 0 mm 1 mps 697 mmHg 89%
    02:00 +5°C° 0.5 mm 2 mps 698 mmHg 90%
    03:00 +5°C° 0.5 mm 2 mps 698 mmHg 92%
    04:00 +6°C° 0.5 mm 2 mps 698 mmHg 93%
    05:00 +5°C° 0.3 mm 2 mps 699 mmHg 94%
    06:00 +5°C° 0.3 mm 2 mps 699 mmHg 94%
    07:00 +5°C° 0.3 mm 2 mps 699 mmHg 94%
    08:00 +6°C° 0 mm 2 mps 699 mmHg 89%
    09:00 +7°C° 0 mm 2 mps 700 mmHg 83%
    10:00 +8°C° 0 mm 2 mps 700 mmHg 77%
    11:00 +9°C° 0 mm 2 mps 700 mmHg 74%
    12:00 +10°C° 0 mm 2 mps 700 mmHg 72%
    13:00 +10°C° 0 mm 2 mps 700 mmHg 69%
    14:00 +9°C° 0.4 mm 2 mps 700 mmHg 75%
    15:00 +9°C° 0.4 mm 2 mps 700 mmHg 82%
    16:00 +8°C° 0.4 mm 2 mps 700 mmHg 88%
    17:00 +8°C° 0.6 mm 2 mps 700 mmHg 90%
    18:00 +7°C° 0.6 mm 2 mps 700 mmHg 91%
    19:00 +7°C° 0.6 mm 2 mps 700 mmHg 93%
    20:00 +7°C° 0.5 mm 2 mps 700 mmHg 93%
    21:00 +7°C° 0.5 mm 2 mps 700 mmHg 92%
    22:00 +7°C° 0.5 mm 2 mps 700 mmHg 92%
    23:00 +7°C° 2 mm 2 mps 700 mmHg 93%

    19 November, Tuesday

    Time Temperature Precipitation Wind Pressure Humidity
    00:00 +7°C° 2 mm 1 mps 700 mmHg 94%
    01:00 +7°C° 2 mm 1 mps 700 mmHg 95%
    02:00 +7°C° 1.2 mm 1 mps 700 mmHg 95%
    03:00 +7°C° 1.2 mm 1 mps 700 mmHg 95%
    04:00 +7°C° 1.2 mm 1 mps 700 mmHg 95%
    05:00 +7°C° 0 mm 1 mps 701 mmHg 94%
    06:00 +7°C° 0 mm 1 mps 701 mmHg 94%
    07:00 +7°C° 0 mm 1 mps 701 mmHg 93%
    08:00 +8°C° 0 mm 1 mps 702 mmHg 90%
    09:00 +9°C° 0 mm 1 mps 702 mmHg 86%
    10:00 +10°C° 0 mm 1 mps 703 mmHg 83%
    11:00 +11°C° 0.3 mm 1 mps 703 mmHg 81%
    12:00 +11°C° 0.3 mm 1 mps 703 mmHg 78%
    13:00 +12°C° 0.3 mm 1 mps 703 mmHg 76%
    14:00 +11°C° 0.3 mm 1 mps 703 mmHg 80%
    15:00 +10°C° 0.3 mm 1 mps 703 mmHg 84%
    16:00 +10°C° 0.3 mm 1 mps 703 mmHg 88%
    17:00 +8°C° 0 mm 0 mps 703 mmHg 90%
    18:00 +7°C° 0 mm 0 mps 703 mmHg 92%
    19:00 +6°C° 0 mm 0 mps 704 mmHg 94%
    20:00 +6°C° 0 mm 0 mps 704 mmHg 94%
    21:00 +5°C° 0 mm 0 mps 704 mmHg 94%
    22:00 +5°C° 0 mm 0 mps 704 mmHg 93%
    23:00 +5°C° 0 mm 0 mps 705 mmHg 93%
    Show more